N625HR KHOU-KBWI

Flight info

Callsign N625HR
Flight time 1h 23m
Altitude 39000
Route LURIC8 ORRTH HARES HITMN SWAPP Q34 NEALS CJAAE RAVNN8
Aircraft B763/H-SDE3FGHIM3RWXY/LB1

Departure

Time 2026-05-05 13:52
Airport William P. Hobby Airport (KHOU)

Arrival

Time 2026-05-05 15:16
Airport Baltimore/Washington International Thurgood Marshall Airport (KBWI)
Time Latitude Longitude Altitude Speed Heading
2026-05-05 13:42 29.64295 -95.28651 51 ft 0 kts 180°
2026-05-05 13:50 29.64267 -95.28610 51 ft 17 kts 96°
2026-05-05 13:50 29.64374 -95.28550 51 ft 19 kts 359°
2026-05-05 13:50 29.64521 -95.28553 51 ft 24 kts 359°
2026-05-05 13:50 29.64692 -95.28555 51 ft 23 kts 358°
2026-05-05 13:51 29.64848 -95.28559 51 ft 21 kts 359°
2026-05-05 13:51 29.64994 -95.28563 51 ft 20 kts 359°
2026-05-05 13:51 29.65058 -95.28494 51 ft 17 kts 133°
2026-05-05 13:51 29.64843 -95.28255 51 ft 78 kts 134°
2026-05-05 13:52 29.64291 -95.27599 53 ft 147 kts 134°
2026-05-05 13:52 29.63535 -95.26637 591 ft 171 kts 127°
2026-05-05 13:52 29.63359 -95.25359 1472 ft 171 kts 78°
2026-05-05 13:52 29.64069 -95.24114 1429 ft 208 kts 37°
2026-05-05 13:53 29.65521 -95.23531 1524 ft 238 kts
2026-05-05 13:53 29.67243 -95.23676 1913 ft 256 kts 354°
2026-05-05 13:53 29.69041 -95.23842 2666 ft 261 kts 355°
2026-05-05 13:53 29.70839 -95.23966 3467 ft 263 kts 356°
2026-05-05 13:54 29.72653 -95.24080 4282 ft 266 kts 356°
2026-05-05 13:54 29.74501 -95.24188 5117 ft 268 kts 356°
2026-05-05 13:54 29.76355 -95.24294 5953 ft 270 kts 356°
2026-05-05 13:54 29.78219 -95.24399 6790 ft 272 kts 355°
2026-05-05 13:55 29.80095 -95.24503 7631 ft 274 kts 355°
2026-05-05 13:55 29.81973 -95.24608 8466 ft 276 kts 355°
2026-05-05 13:55 29.83892 -95.24715 9312 ft 278 kts 355°
2026-05-05 13:55 29.85808 -95.24821 10147 ft 280 kts 356°
2026-05-05 13:56 29.87839 -95.24935 10363 ft 308 kts 356°
2026-05-05 13:56 29.90073 -95.25060 10486 ft 339 kts 356°
2026-05-05 13:56 29.92539 -95.25196 10729 ft 366 kts 356°
2026-05-05 13:56 29.95201 -95.25343 11692 ft 373 kts 356°
2026-05-05 13:57 30.03127 -95.25778 14579 ft 383 kts 355°
2026-05-05 13:57 30.09438 -95.25117 16638 ft 399 kts 15°
2026-05-05 13:57 30.14343 -95.21976 18277 ft 418 kts 34°
2026-05-05 13:57 30.19049 -95.17837 19880 ft 427 kts 31°
2026-05-05 13:58 30.23930 -95.13845 21412 ft 437 kts 29°
2026-05-05 13:58 30.28856 -95.09879 22871 ft 446 kts 28°
2026-05-05 13:58 30.33986 -95.05760 24293 ft 456 kts 28°
2026-05-05 13:58 30.39246 -95.01534 25653 ft 466 kts 27°
2026-05-05 13:59 30.50070 -94.93213 28261 ft 482 kts 25°
2026-05-05 13:59 30.55304 -94.89204 29420 ft 490 kts 24°
2026-05-05 14:00 30.66330 -94.80726 32445 ft 486 kts 23°
2026-05-05 14:00 30.70066 -94.77850 33396 ft 483 kts 22°
2026-05-05 14:00 30.77418 -94.72185 35033 ft 478 kts 22°
2026-05-05 14:00 30.82921 -94.67938 36100 ft 475 kts 22°
2026-05-05 14:01 30.88423 -94.63686 36971 ft 474 kts 22°
2026-05-05 14:01 30.93930 -94.59427 37647 ft 476 kts 23°
2026-05-05 14:01 30.99194 -94.55348 38211 ft 477 kts 24°
2026-05-05 14:01 31.04698 -94.51080 38780 ft 477 kts 25°
2026-05-05 14:02 31.09943 -94.47006 38896 ft 478 kts 25°
2026-05-05 14:02 31.14793 -94.43234 38906 ft 474 kts 25°
2026-05-05 14:02 31.25588 -94.34824 38911 ft 476 kts 26°
2026-05-05 14:03 31.36359 -94.26405 38891 ft 476 kts 26°
2026-05-05 14:03 31.47242 -94.17874 38892 ft 476 kts 26°
2026-05-05 14:04 31.58226 -94.09241 38890 ft 476 kts 26°
2026-05-05 14:04 31.69139 -94.00638 38894 ft 477 kts 26°
2026-05-05 14:05 31.79611 -93.91132 38884 ft 494 kts 43°
2026-05-05 14:05 31.88106 -93.78389 38871 ft 497 kts 45°
2026-05-05 14:06 31.96507 -93.65577 38875 ft 496 kts 45°
2026-05-05 14:06 32.04665 -93.53086 38874 ft 497 kts 45°
2026-05-05 14:07 32.12855 -93.40507 38883 ft 497 kts 45°
2026-05-05 14:07 32.21262 -93.27550 38874 ft 498 kts 46°
2026-05-05 14:08 32.29592 -93.14668 38894 ft 497 kts 46°
2026-05-05 14:08 32.37943 -93.01711 38898 ft 496 kts 46°
2026-05-05 14:09 32.46302 -92.88696 38902 ft 496 kts 47°
2026-05-05 14:09 32.54551 -92.75791 38902 ft 496 kts 49°
2026-05-05 14:10 32.61288 -92.61488 38901 ft 502 kts 57°
2026-05-05 14:10 32.67781 -92.46865 38906 ft 501 kts 58°
2026-05-05 14:11 32.74254 -92.32217 38901 ft 503 kts 58°
2026-05-05 14:11 32.80596 -92.17802 38919 ft 502 kts 58°
2026-05-05 14:12 32.87018 -92.03146 38928 ft 503 kts 58°
2026-05-05 14:12 32.93464 -91.88374 38927 ft 502 kts 58°
2026-05-05 14:13 32.99865 -91.73892 38925 ft 500 kts 52°
2026-05-05 14:13 33.08289 -91.60870 38929 ft 497 kts 45°
2026-05-05 14:14 33.16826 -91.47978 38931 ft 498 kts 45°
2026-05-05 14:14 33.25303 -91.35136 38920 ft 498 kts 45°
2026-05-05 14:15 33.33843 -91.22156 38913 ft 499 kts 45°
2026-05-05 14:15 33.42379 -91.09131 38918 ft 497 kts 45°
2026-05-05 14:16 33.50864 -90.96139 38919 ft 496 kts 44°
2026-05-05 14:16 33.59182 -90.83362 38914 ft 495 kts 44°
2026-05-05 14:17 33.67576 -90.70421 38907 ft 494 kts 44°
2026-05-05 14:17 33.76008 -90.57373 38913 ft 496 kts 45°
2026-05-05 14:18 33.84414 -90.44318 38916 ft 495 kts 44°
2026-05-05 14:18 33.92782 -90.31280 38925 ft 497 kts 45°
2026-05-05 14:19 34.01160 -90.18176 38937 ft 498 kts 45°
2026-05-05 14:19 34.09551 -90.05002 38935 ft 498 kts 45°
2026-05-05 14:20 34.17850 -89.91926 38950 ft 497 kts 45°
2026-05-05 14:20 34.26207 -89.78710 38951 ft 498 kts 45°
2026-05-05 14:21 34.34569 -89.65439 38963 ft 497 kts 45°
2026-05-05 14:21 34.42839 -89.52264 38984 ft 498 kts 45°
2026-05-05 14:22 34.51179 -89.38928 38984 ft 497 kts 45°
2026-05-05 14:22 34.59432 -89.25680 38978 ft 497 kts 46°
2026-05-05 14:23 34.67723 -89.12325 38975 ft 498 kts 46°
2026-05-05 14:23 34.76031 -88.98889 38980 ft 499 kts 46°
2026-05-05 14:24 34.84310 -88.85455 38979 ft 502 kts 46°
2026-05-05 14:24 34.92729 -88.71735 38987 ft 508 kts 46°
2026-05-05 14:25 35.01149 -88.57961 38981 ft 511 kts 46°
2026-05-05 14:25 35.09585 -88.44106 38981 ft 514 kts 46°
2026-05-05 14:26 35.17851 -88.30477 38970 ft 513 kts 46°
2026-05-05 14:26 35.26349 -88.16415 38971 ft 514 kts 46°
2026-05-05 14:27 35.34787 -88.02390 38975 ft 513 kts 46°
2026-05-05 14:27 35.43207 -87.88345 38978 ft 515 kts 47°
2026-05-05 14:28 35.51614 -87.74259 38981 ft 515 kts 46°
2026-05-05 14:28 35.60010 -87.60141 38980 ft 517 kts 47°
2026-05-05 14:29 35.68364 -87.46029 38982 ft 515 kts 46°
2026-05-05 14:29 35.76793 -87.31737 38965 ft 515 kts 47°
2026-05-05 14:30 35.85109 -87.17574 38968 ft 516 kts 47°
2026-05-05 14:30 35.93499 -87.03227 38952 ft 511 kts 47°
2026-05-05 14:31 36.01701 -86.89144 38943 ft 504 kts 46°
2026-05-05 14:31 36.09764 -86.75250 38968 ft 505 kts 46°
2026-05-05 14:32 36.13551 -86.67981 38983 ft 512 kts 57°
2026-05-05 14:32 36.16420 -86.59867 38991 ft 518 kts 60°
2026-05-05 14:32 36.21815 -86.43388 39003 ft 518 kts 62°
2026-05-05 14:33 36.27119 -86.26930 38995 ft 520 kts 62°
2026-05-05 14:33 36.32400 -86.10437 39001 ft 518 kts 62°
2026-05-05 14:34 36.37709 -85.93763 38998 ft 521 kts 62°
2026-05-05 14:34 36.42990 -85.77084 39002 ft 519 kts 62°
2026-05-05 14:35 36.48217 -85.60476 39016 ft 520 kts 62°
2026-05-05 14:35 36.53440 -85.43787 39011 ft 518 kts 62°
2026-05-05 14:36 36.58645 -85.27064 39008 ft 521 kts 63°
2026-05-05 14:36 36.63847 -85.10246 39015 ft 521 kts 64°
2026-05-05 14:37 36.68991 -84.93513 39016 ft 520 kts 65°
2026-05-05 14:37 36.74104 -84.76771 39023 ft 520 kts 65°
2026-05-05 14:38 36.79220 -84.59930 39023 ft 520 kts 65°
2026-05-05 14:38 36.84301 -84.43100 39026 ft 520 kts 65°
2026-05-05 14:39 36.89352 -84.26270 39017 ft 521 kts 66°
2026-05-05 14:39 36.94369 -84.09450 39016 ft 520 kts 65°
2026-05-05 14:40 36.99330 -83.92716 39013 ft 516 kts 65°
2026-05-05 14:40 37.04261 -83.75982 39013 ft 516 kts 65°
2026-05-05 14:41 37.09217 -83.59061 39008 ft 517 kts 65°
2026-05-05 14:41 37.14109 -83.42252 39018 ft 516 kts 65°
2026-05-05 14:42 37.18982 -83.25414 39013 ft 519 kts 65°
2026-05-05 14:42 37.23836 -83.08530 39030 ft 519 kts 65°
2026-05-05 14:43 37.28729 -82.91422 39029 ft 531 kts 68°
2026-05-05 14:43 37.33727 -82.73808 39027 ft 534 kts 72°
2026-05-05 14:44 37.38640 -82.56360 39027 ft 535 kts 72°
2026-05-05 14:44 37.41871 -82.44852 39028 ft 532 kts 73°
2026-05-05 14:45 37.44327 -82.36050 39047 ft 534 kts 72°
2026-05-05 14:45 37.46781 -82.27235 39027 ft 535 kts 73°
2026-05-05 14:46 37.49220 -82.18452 39044 ft 535 kts 72°
2026-05-05 14:46 37.51657 -82.09642 39063 ft 533 kts 73°
2026-05-05 14:47 37.54085 -82.00842 39075 ft 534 kts 73°
2026-05-05 14:47 37.56510 -81.92018 39081 ft 533 kts 73°
2026-05-05 14:48 37.58927 -81.83188 39098 ft 532 kts 73°
2026-05-05 14:48 37.60863 -81.74258 39096 ft 532 kts 79°
2026-05-05 14:49 37.62620 -81.65269 39093 ft 527 kts 79°
2026-05-05 14:49 37.64367 -81.56253 39097 ft 532 kts 79°
2026-05-05 14:50 37.66109 -81.47230 39088 ft 531 kts 78°
2026-05-05 14:50 37.67855 -81.38169 39080 ft 530 kts 78°
2026-05-05 14:51 37.69589 -81.29105 39073 ft 532 kts 80°
2026-05-05 14:51 37.71309 -81.20067 39073 ft 530 kts 79°
2026-05-05 14:52 37.73017 -81.11075 39072 ft 530 kts 80°
2026-05-05 14:52 37.74737 -81.01984 39084 ft 532 kts 81°
2026-05-05 14:53 37.76444 -80.92913 39070 ft 533 kts 82°
2026-05-05 14:53 37.78143 -80.83823 39067 ft 532 kts 83°
2026-05-05 14:54 37.79836 -80.74727 39101 ft 534 kts 83°
2026-05-05 14:54 37.81505 -80.65733 39069 ft 527 kts 83°
2026-05-05 14:55 37.83181 -80.56644 39092 ft 533 kts 83°
2026-05-05 14:55 37.84858 -80.47533 39083 ft 529 kts 84°
2026-05-05 14:56 37.86683 -80.38574 39096 ft 535 kts 76°
2026-05-05 14:56 37.89590 -80.29868 39086 ft 536 kts 72°
2026-05-05 14:57 37.92569 -80.21152 39067 ft 543 kts 71°
2026-05-05 14:57 37.95556 -80.12418 39060 ft 540 kts 72°
2026-05-05 14:58 38.00725 -79.97208 39077 ft 534 kts 72°
2026-05-05 14:58 38.06440 -79.80293 39116 ft 539 kts 72°
2026-05-05 14:59 38.12292 -79.62874 39098 ft 542 kts 72°
2026-05-05 14:59 38.18058 -79.45627 38300 ft 536 kts 72°
2026-05-05 15:00 38.20699 -79.37679 37134 ft 534 kts 71°
2026-05-05 15:00 38.22633 -79.31857 36233 ft 533 kts 73°
2026-05-05 15:00 38.26414 -79.20429 34583 ft 527 kts 72°
2026-05-05 15:00 38.29229 -79.11892 33320 ft 523 kts 73°
2026-05-05 15:01 38.31877 -79.03834 32168 ft 522 kts 72°
2026-05-05 15:01 38.34594 -78.95544 30981 ft 518 kts 72°
2026-05-05 15:01 38.37345 -78.87118 29783 ft 521 kts 71°
2026-05-05 15:01 38.40073 -78.78758 28594 ft 514 kts 71°
2026-05-05 15:02 38.42788 -78.70400 27403 ft 504 kts 71°
2026-05-05 15:02 38.45141 -78.62290 26682 ft 485 kts 77°
2026-05-05 15:02 38.47144 -78.54285 26453 ft 493 kts 76°
2026-05-05 15:02 38.49239 -78.46073 26153 ft 488 kts 75°
2026-05-05 15:03 38.51313 -78.37950 25839 ft 485 kts 75°
2026-05-05 15:03 38.53394 -78.29775 25512 ft 480 kts 76°
2026-05-05 15:03 38.55374 -78.21774 24446 ft 471 kts 76°
2026-05-05 15:03 38.57285 -78.14012 23543 ft 458 kts 76°
2026-05-05 15:04 38.58958 -78.06252 22513 ft 448 kts 78°
2026-05-05 15:04 38.60497 -77.99032 21628 ft 438 kts 78°
2026-05-05 15:04 38.62028 -77.91904 20633 ft 432 kts 78°
2026-05-05 15:04 38.63515 -77.84957 19689 ft 426 kts 77°
2026-05-05 15:05 38.65121 -77.70987 18401 ft 404 kts 89°
2026-05-05 15:05 38.65541 -77.63995 17979 ft 399 kts 89°
2026-05-05 15:05 38.65951 -77.57071 17565 ft 396 kts 89°
2026-05-05 15:06 38.66360 -77.50073 17137 ft 394 kts 89°
2026-05-05 15:06 38.66761 -77.43142 16703 ft 391 kts 89°
2026-05-05 15:06 38.67158 -77.36198 16258 ft 387 kts 89°
2026-05-05 15:06 38.67533 -77.29623 15724 ft 387 kts 89°
2026-05-05 15:07 38.67913 -77.23017 14838 ft 382 kts 89°
2026-05-05 15:07 38.68280 -77.16550 13895 ft 379 kts 89°
2026-05-05 15:07 38.68644 -77.10041 13059 ft 372 kts 88°
2026-05-05 15:07 38.69003 -77.03554 12294 ft 364 kts 88°
2026-05-05 15:08 38.69349 -76.97263 11274 ft 365 kts 88°
2026-05-05 15:08 38.69692 -76.90964 10591 ft 353 kts 89°
2026-05-05 15:08 38.70005 -76.85183 10281 ft 333 kts 89°
2026-05-05 15:08 38.70297 -76.79743 10250 ft 306 kts 89°
2026-05-05 15:09 38.70712 -76.74700 9833 ft 300 kts 74°
2026-05-05 15:09 38.72501 -76.70147 9273 ft 299 kts 62°
2026-05-05 15:09 38.74427 -76.65677 8737 ft 296 kts 62°
2026-05-05 15:09 38.76415 -76.61094 8184 ft 292 kts 62°
2026-05-05 15:10 38.79201 -76.57626 7591 ft 290 kts 18°
2026-05-05 15:10 38.82918 -76.56440 7047 ft 286 kts 11°
2026-05-05 15:10 38.86556 -76.56043 6567 ft 279 kts 354°
2026-05-05 15:10 38.90113 -76.56267 6466 ft 260 kts 354°
2026-05-05 15:11 38.93413 -76.56474 6283 ft 246 kts 354°
2026-05-05 15:11 38.96645 -76.56673 5871 ft 244 kts 354°
2026-05-05 15:11 38.98869 -76.56809 5582 ft 243 kts 355°
2026-05-05 15:11 39.00547 -76.56913 5366 ft 241 kts 355°
2026-05-05 15:12 39.02197 -76.57014 5135 ft 234 kts 355°
2026-05-05 15:12 39.03790 -76.57111 4656 ft 231 kts 355°
2026-05-05 15:12 39.05382 -76.57210 4135 ft 228 kts 355°
2026-05-05 15:12 39.06827 -76.57632 3955 ft 199 kts 330°
2026-05-05 15:13 39.07919 -76.58508 3824 ft 171 kts 322°
2026-05-05 15:13 39.08886 -76.59348 3399 ft 166 kts 321°
2026-05-05 15:13 39.09813 -76.60175 2956 ft 164 kts 321°
2026-05-05 15:13 39.10750 -76.61019 2386 ft 170 kts 322°
2026-05-05 15:14 39.11752 -76.61890 1706 ft 178 kts 323°
2026-05-05 15:14 39.12726 -76.62786 1250 ft 170 kts 320°
2026-05-05 15:14 39.13644 -76.63654 894 ft 160 kts 323°
2026-05-05 15:14 39.14534 -76.64459 611 ft 148 kts 321°
2026-05-05 15:15 39.15356 -76.65237 418 ft 150 kts 321°
2026-05-05 15:15 39.16205 -76.66023 222 ft 143 kts 321°
2026-05-05 15:15 39.16968 -76.66750 146 ft 128 kts 324°
2026-05-05 15:15 39.17559 -76.67289 144 ft 83 kts 324°
2026-05-05 15:16 39.17941 -76.67648 137 ft 47 kts 323°
2026-05-05 15:16 39.18156 -76.67731 138 ft 29 kts 43°
2026-05-05 15:16 39.18150 -76.67558 143 ft 20 kts 143°
2026-05-05 15:16 39.18033 -76.67454 142 ft 19 kts 146°
2026-05-05 15:17 39.17926 -76.67358 143 ft 18 kts 144°
2026-05-05 15:17 39.17799 -76.67240 145 ft 22 kts 144°
2026-05-05 15:17 39.17677 -76.67128 147 ft 20 kts 144°
2026-05-05 15:17 39.17571 -76.67025 149 ft 17 kts 132°
2026-05-05 15:18 39.17533 -76.66877 149 ft 22 kts 94°
2026-05-05 15:18 39.17536 -76.66644 150 ft 26 kts 58°
2026-05-05 15:18 39.17681 -76.66521 150 ft 24 kts 32°
2026-05-05 15:18 39.17761 -76.66363 150 ft 19 kts 41°
2026-05-05 15:19 39.17876 -76.66266 147 ft 20 kts 31°
2026-05-05 15:19 39.18006 -76.66160 142 ft 23 kts 33°
2026-05-05 15:19 39.18147 -76.66144 142 ft 21 kts 323°
2026-05-05 15:19 39.18258 -76.66247 146 ft 18 kts 323°
2026-05-05 15:20 39.18330 -76.66363 150 ft 20 kts 281°
2026-05-05 15:20 39.18422 -76.66505 153 ft 20 kts 323°
2026-05-05 15:20 39.18498 -76.66624 155 ft 15 kts 254°
2026-05-05 15:20 39.18443 -76.66730 157 ft 12 kts 235°
2026-05-05 15:21 39.18406 -76.66833 159 ft 12 kts 276°
2026-05-05 15:21 39.18411 -76.66922 159 ft 3 kts 245°
2026-05-05 15:21 39.18401 -76.66941 159 ft 2 kts 234°
2026-05-05 15:21 39.18400 -76.66941 159 ft 0 kts 234°